Starlink 31237

operational
NORAD ID: 58855 Int'l Des: 2024-019 Owner: SPXS Country: US Constellation: starlink
LEOCIRCULAR

About Starlink 31237

Description loading...

Live Position

Loading 3D Globe...

Upcoming Passes

Altitude History

Altitude vs Time

uPlot chart will show altitude changes over time

Two-Line Element Set

1 58855U 24019C 25305.91087265 .00000742 00000-0 36500-4 0 9991
2 58855 43.0073 250.2842 0001131 263.9299 96.1424 15.27565163 99543
Epoch: Nov 1, 2025 • Age: 42 hours

Current Status

Altitude 495.2 km
Velocity 7.62 km/s
Sub-Earth Point -41.97°S, 114.71°W
Launch Date Jan 29, 2024
Age 1.7 years
Type internet

Technical Details

Classification Payload
Mass 730.00 kg
Dry Mass 700.00 kg
Total Mass 730.00 kg
Length 0.30 m
Diameter 4.10 m
Span 29.00 m
Shape Box + pan
Manufacturer SPXS
Bus Type Starlink V2M
Phase Status In Orbit
Owner/State SPXS/US

Large Constellations

Loading constellations...